Year,Month,Day,Hour,Minute,Value (Times are PST for temperature in C)
2020,10,01,00,00,12.60
2020,10,01,00,01,12.60
2020,10,01,00,02,12.60
2020,10,01,00,03,12.60
2020,10,01,00,04,12.50
2020,10,01,00,05,12.50
2020,10,01,00,06,12.50
2020,10,01,00,07,12.50
2020,10,01,00,08,12.50
2020,10,01,00,09,12.50
2020,10,01,00,10,12.50
2020,10,01,00,11,12.50
2020,10,01,00,12,12.40
2020,10,01,00,13,12.40
2020,10,01,00,14,12.40
2020,10,01,00,15,12.40
2020,10,01,00,16,12.40
2020,10,01,00,17,12.40
2020,10,01,00,18,12.40
2020,10,01,00,19,12.40
2020,10,01,00,20,12.40
2020,10,01,00,21,12.40
2020,10,01,00,22,12.40
2020,10,01,00,23,12.40
2020,10,01,00,24,12.40
2020,10,01,00,25,12.40
2020,10,01,00,26,12.40
2020,10,01,00,27,12.40
2020,10,01,00,28,12.40
2020,10,01,00,29,12.40
2020,10,01,00,30,12.40
2020,10,01,00,31,12.40
2020,10,01,00,32,12.40
2020,10,01,00,33,12.40
2020,10,01,00,34,12.30
2020,10,01,00,35,12.30
2020,10,01,00,36,12.30
2020,10,01,00,37,12.30
2020,10,01,00,38,12.30
2020,10,01,00,39,12.30
2020,10,01,00,40,12.30
2020,10,01,00,41,12.20
2020,10,01,00,42,12.20
2020,10,01,00,43,12.20
2020,10,01,00,44,12.20
2020,10,01,00,45,12.20
2020,10,01,00,46,12.20
2020,10,01,00,47,12.20
2020,10,01,00,48,12.20
2020,10,01,00,49,12.20
2020,10,01,00,50,12.20
2020,10,01,00,51,12.20
2020,10,01,00,52,12.20
2020,10,01,00,53,12.20
2020,10,01,00,54,12.20
2020,10,01,00,55,12.20
2020,10,01,00,56,12.10
2020,10,01,00,57,12.10
2020,10,01,00,58,12.10
2020,10,01,00,59,12.10
2020,10,01,01,00,12.10
2020,10,01,01,01,12.10
2020,10,01,01,02,12.10
2020,10,01,01,03,12.10
2020,10,01,01,04,12.10
2020,10,01,01,05,12.10
2020,10,01,01,06,12.10
2020,10,01,01,07,12.10
2020,10,01,01,08,12.10
2020,10,01,01,09,12.10
2020,10,01,01,10,12.10
2020,10,01,01,11,12.00
2020,10,01,01,12,12.00
2020,10,01,01,13,12.00
2020,10,01,01,14,12.00
2020,10,01,01,15,12.00
2020,10,01,01,16,12.00
2020,10,01,01,17,12.00
2020,10,01,01,18,12.00
2020,10,01,01,19,12.10
2020,10,01,01,20,12.10
2020,10,01,01,21,12.10
2020,10,01,01,22,12.10
2020,10,01,01,23,12.10
2020,10,01,01,24,12.10
2020,10,01,01,25,12.10
2020,10,01,01,26,12.10
2020,10,01,01,27,12.10
2020,10,01,01,28,12.10
2020,10,01,01,29,12.10
2020,10,01,01,30,12.10
2020,10,01,01,31,12.10
2020,10,01,01,32,12.10
2020,10,01,01,33,12.00
2020,10,01,01,34,12.00
2020,10,01,01,35,12.00
2020,10,01,01,36,12.00
2020,10,01,01,37,12.00
2020,10,01,01,38,12.00
2020,10,01,01,39,12.00
2020,10,01,01,40,12.00
2020,10,01,01,41,12.00
2020,10,01,01,42,12.00
2020,10,01,01,43,11.90
2020,10,01,01,44,11.90
2020,10,01,01,45,11.90
2020,10,01,01,46,11.90
2020,10,01,01,47,11.90
2020,10,01,01,48,11.90
2020,10,01,01,49,11.90
2020,10,01,01,50,11.90
2020,10,01,01,51,11.90
2020,10,01,01,52,11.90
2020,10,01,01,53,11.90
2020,10,01,01,54,11.90
2020,10,01,01,55,11.90
2020,10,01,01,56,11.90
2020,10,01,01,57,11.90
2020,10,01,01,58,11.90
2020,10,01,01,59,11.80
2020,10,01,02,00,11.80
2020,10,01,02,01,11.80
2020,10,01,02,02,11.80
2020,10,01,02,03,11.80
2020,10,01,02,04,11.80
2020,10,01,02,05,11.80
2020,10,01,02,06,11.90
2020,10,01,02,07,11.90
2020,10,01,02,08,11.90
2020,10,01,02,09,11.90
2020,10,01,02,10,11.90
2020,10,01,02,11,11.90
2020,10,01,02,12,11.90
2020,10,01,02,13,11.90
2020,10,01,02,14,11.90
2020,10,01,02,15,11.90
2020,10,01,02,16,11.90
2020,10,01,02,17,11.90
2020,10,01,02,18,11.90
2020,10,01,02,19,11.90
2020,10,01,02,20,11.90
2020,10,01,02,21,11.90
2020,10,01,02,22,11.90
2020,10,01,02,23,11.90
2020,10,01,02,24,11.90
2020,10,01,02,25,11.90
2020,10,01,02,26,12.00
2020,10,01,02,27,12.00
2020,10,01,02,28,12.00
2020,10,01,02,29,12.10
2020,10,01,02,30,12.10
2020,10,01,02,31,12.10
2020,10,01,02,32,12.20
2020,10,01,02,33,12.20
2020,10,01,02,34,12.20
2020,10,01,02,35,12.20
2020,10,01,02,36,12.30
2020,10,01,02,37,12.30
2020,10,01,02,38,12.30
2020,10,01,02,39,12.30
2020,10,01,02,40,12.40
2020,10,01,02,41,12.40
2020,10,01,02,42,12.40
2020,10,01,02,43,12.40
2020,10,01,02,44,12.40
2020,10,01,02,45,12.40
2020,10,01,02,46,12.50
2020,10,01,02,47,12.50
2020,10,01,02,48,12.40
2020,10,01,02,49,12.40
2020,10,01,02,50,12.40
2020,10,01,02,51,12.40
2020,10,01,02,52,12.40
2020,10,01,02,53,12.40
2020,10,01,02,54,12.30
2020,10,01,02,55,12.40
2020,10,01,02,56,12.30
2020,10,01,02,57,12.40
2020,10,01,02,58,12.40
2020,10,01,02,59,12.40
2020,10,01,03,00,12.40
2020,10,01,03,01,12.40
2020,10,01,03,02,12.40
2020,10,01,03,03,12.40
2020,10,01,03,04,12.40
2020,10,01,03,05,12.40
2020,10,01,03,06,12.30
2020,10,01,03,07,12.30
2020,10,01,03,08,12.30
2020,10,01,03,09,12.30
2020,10,01,03,10,12.30
2020,10,01,03,11,12.30
2020,10,01,03,12,12.20
2020,10,01,03,13,12.20
2020,10,01,03,14,12.20
2020,10,01,03,15,12.20
2020,10,01,03,16,12.20
2020,10,01,03,17,12.20
2020,10,01,03,18,12.20
2020,10,01,03,19,12.20
2020,10,01,03,20,12.20
2020,10,01,03,21,12.20
2020,10,01,03,22,12.20
2020,10,01,03,23,12.30
2020,10,01,03,24,12.30
2020,10,01,03,25,12.40
2020,10,01,03,26,12.50
2020,10,01,03,27,12.60
2020,10,01,03,28,12.60
2020,10,01,03,29,12.60
2020,10,01,03,30,12.60
2020,10,01,03,31,12.60
2020,10,01,03,32,12.60
2020,10,01,03,33,12.60
2020,10,01,03,34,12.60
2020,10,01,03,35,12.60
2020,10,01,03,36,12.60
2020,10,01,03,37,12.60
2020,10,01,03,38,12.60
2020,10,01,03,39,12.60
2020,10,01,03,40,12.50
2020,10,01,03,41,12.50
2020,10,01,03,42,12.50
2020,10,01,03,43,12.50
2020,10,01,03,44,12.40
2020,10,01,03,45,12.40
2020,10,01,03,46,12.40
2020,10,01,03,47,12.40
2020,10,01,03,48,12.40
2020,10,01,03,49,12.40
2020,10,01,03,50,12.40
2020,10,01,03,51,12.40
2020,10,01,03,52,12.40
2020,10,01,03,53,12.40
2020,10,01,03,54,12.40
2020,10,01,03,55,12.40
2020,10,01,03,56,12.40
2020,10,01,03,57,12.40
2020,10,01,03,58,12.40
2020,10,01,03,59,12.40
2020,10,01,04,00,12.40
2020,10,01,04,01,12.40
2020,10,01,04,02,12.40
2020,10,01,04,03,12.40
2020,10,01,04,04,12.40
2020,10,01,04,05,12.40
2020,10,01,04,06,12.40
2020,10,01,04,07,12.40
2020,10,01,04,08,12.40
2020,10,01,04,09,12.40
2020,10,01,04,10,12.40
2020,10,01,04,11,12.40
2020,10,01,04,12,12.40
2020,10,01,04,13,12.40
2020,10,01,04,14,12.40
2020,10,01,04,15,12.40
2020,10,01,04,16,12.40
2020,10,01,04,17,12.40
2020,10,01,04,18,12.40
2020,10,01,04,19,12.40
2020,10,01,04,20,12.30
2020,10,01,04,21,12.30
2020,10,01,04,22,12.30
2020,10,01,04,23,12.30
2020,10,01,04,24,12.20
2020,10,01,04,25,12.20
2020,10,01,04,26,12.20
2020,10,01,04,27,12.20
2020,10,01,04,28,12.20
2020,10,01,04,29,12.20
2020,10,01,04,30,12.20
2020,10,01,04,31,12.20
2020,10,01,04,32,12.20
2020,10,01,04,33,12.20
2020,10,01,04,34,12.20
2020,10,01,04,35,12.20
2020,10,01,04,36,12.20
2020,10,01,04,37,12.20
2020,10,01,04,38,12.20
2020,10,01,04,39,12.20
2020,10,01,04,40,12.20
2020,10,01,04,41,12.20
2020,10,01,04,42,12.10
2020,10,01,04,43,12.10
2020,10,01,04,44,12.10
2020,10,01,04,45,12.00
2020,10,01,04,46,12.00
2020,10,01,04,47,11.90
2020,10,01,04,48,11.80
2020,10,01,04,49,11.80
2020,10,01,04,50,11.70
2020,10,01,04,51,11.70
2020,10,01,04,52,11.70
2020,10,01,04,53,11.60
2020,10,01,04,54,11.60
2020,10,01,04,55,11.60
2020,10,01,04,56,11.60
2020,10,01,04,57,11.50
2020,10,01,04,58,11.50
2020,10,01,04,59,11.50
2020,10,01,05,00,11.40
2020,10,01,05,01,11.40
2020,10,01,05,02,11.40
2020,10,01,05,03,11.40
2020,10,01,05,04,11.40
2020,10,01,05,05,11.40
2020,10,01,05,06,11.40
2020,10,01,05,07,11.40
2020,10,01,05,08,11.40
2020,10,01,05,09,11.40
2020,10,01,05,10,11.40
2020,10,01,05,11,11.40
2020,10,01,05,12,11.40
2020,10,01,05,13,11.40
2020,10,01,05,14,11.40
2020,10,01,05,15,11.40
2020,10,01,05,16,11.40
2020,10,01,05,17,11.40
2020,10,01,05,18,11.40
2020,10,01,05,19,11.40
2020,10,01,05,20,11.40
2020,10,01,05,21,11.40
2020,10,01,05,22,11.40
2020,10,01,05,23,11.40
2020,10,01,05,24,11.40
2020,10,01,05,25,11.40
2020,10,01,05,26,11.30
2020,10,01,05,27,11.30
2020,10,01,05,28,11.30
2020,10,01,05,29,11.30
2020,10,01,05,30,11.30
2020,10,01,05,31,11.30
2020,10,01,05,32,11.30
2020,10,01,05,33,11.30
2020,10,01,05,34,11.30
2020,10,01,05,35,11.30
2020,10,01,05,36,11.30
2020,10,01,05,37,11.30
2020,10,01,05,38,11.30
2020,10,01,05,39,11.20
2020,10,01,05,40,11.20
2020,10,01,05,41,11.20
2020,10,01,05,42,11.20
2020,10,01,05,43,11.20
2020,10,01,05,44,11.20
2020,10,01,05,45,11.20
2020,10,01,05,46,11.20
2020,10,01,05,47,11.20
2020,10,01,05,48,11.30
2020,10,01,05,49,11.30
2020,10,01,05,50,11.30
2020,10,01,05,51,11.30
2020,10,01,05,52,11.30
2020,10,01,05,53,11.30
2020,10,01,05,54,11.30
2020,10,01,05,55,11.30
2020,10,01,05,56,11.30
2020,10,01,05,57,11.30
2020,10,01,05,58,11.30
2020,10,01,05,59,11.30
2020,10,01,06,00,11.30
2020,10,01,06,01,11.30
2020,10,01,06,02,11.30
2020,10,01,06,03,11.30
2020,10,01,06,04,11.30
2020,10,01,06,05,11.30
2020,10,01,06,06,11.30
2020,10,01,06,07,11.30
2020,10,01,06,08,11.30
2020,10,01,06,09,11.30
2020,10,01,06,10,11.30
2020,10,01,06,11,11.30
2020,10,01,06,12,11.30
2020,10,01,06,13,11.30
2020,10,01,06,14,11.30
2020,10,01,06,15,11.30
2020,10,01,06,16,11.30
2020,10,01,06,17,11.30
2020,10,01,06,18,11.30
2020,10,01,06,19,11.30
2020,10,01,06,20,11.30
2020,10,01,06,21,11.30
2020,10,01,06,22,11.30
2020,10,01,06,23,11.30
2020,10,01,06,24,11.30
2020,10,01,06,25,11.30
2020,10,01,06,26,11.30
2020,10,01,06,27,11.30
2020,10,01,06,28,11.30
2020,10,01,06,29,11.30
2020,10,01,06,30,11.30
2020,10,01,06,31,11.30
2020,10,01,06,32,11.30
2020,10,01,06,33,11.30
2020,10,01,06,34,11.30
2020,10,01,06,35,11.30
2020,10,01,06,36,11.30
2020,10,01,06,37,11.30
2020,10,01,06,38,11.30
2020,10,01,06,39,11.30
2020,10,01,06,40,11.30
2020,10,01,06,41,11.30
2020,10,01,06,42,11.30
2020,10,01,06,43,11.30
2020,10,01,06,44,11.30
2020,10,01,06,45,11.30
2020,10,01,06,46,11.30
2020,10,01,06,47,11.30
2020,10,01,06,48,11.30
2020,10,01,06,49,11.30
2020,10,01,06,50,11.30
2020,10,01,06,51,11.20
2020,10,01,06,52,11.20
2020,10,01,06,53,11.20
2020,10,01,06,54,11.20
2020,10,01,06,55,11.20
2020,10,01,06,56,11.20
2020,10,01,06,57,11.20
2020,10,01,06,58,11.20
2020,10,01,06,59,11.20
2020,10,01,07,00,11.20
2020,10,01,07,01,11.20
2020,10,01,07,02,11.20
2020,10,01,07,03,11.20
2020,10,01,07,04,11.20
2020,10,01,07,05,11.20
2020,10,01,07,06,11.20
2020,10,01,07,07,11.20
2020,10,01,07,08,11.10
2020,10,01,07,09,11.10
2020,10,01,07,10,11.10
2020,10,01,07,11,11.10
2020,10,01,07,12,11.10
2020,10,01,07,13,11.10
2020,10,01,07,14,11.10
2020,10,01,07,15,11.10
2020,10,01,07,16,11.10
2020,10,01,07,17,11.10
2020,10,01,07,18,11.10
2020,10,01,07,19,11.10
2020,10,01,07,20,11.10
2020,10,01,07,21,11.10
2020,10,01,07,22,11.10
2020,10,01,07,23,11.00
2020,10,01,07,24,11.00
2020,10,01,07,25,11.00
2020,10,01,07,26,11.00
2020,10,01,07,27,11.00
2020,10,01,07,28,11.00
2020,10,01,07,29,11.00
2020,10,01,07,30,11.00
2020,10,01,07,31,11.00
2020,10,01,07,32,11.00
2020,10,01,07,33,11.00
2020,10,01,07,34,11.00
2020,10,01,07,35,11.00
2020,10,01,07,36,11.00
2020,10,01,07,37,11.00
2020,10,01,07,38,11.00
2020,10,01,07,39,11.00
2020,10,01,07,40,11.00
2020,10,01,07,41,11.00
2020,10,01,07,42,11.00
2020,10,01,07,43,11.00
2020,10,01,07,44,11.00
2020,10,01,07,45,11.00
2020,10,01,07,46,11.00
2020,10,01,07,47,11.00
2020,10,01,07,48,11.00
2020,10,01,07,49,11.00
2020,10,01,07,50,11.00
2020,10,01,07,51,11.00
2020,10,01,07,52,11.00
2020,10,01,07,53,10.90
2020,10,01,07,54,10.90
2020,10,01,07,55,10.90
2020,10,01,07,56,10.90
2020,10,01,07,57,10.90
2020,10,01,07,58,10.90
2020,10,01,07,59,10.90
2020,10,01,08,00,10.90
2020,10,01,08,01,10.90
2020,10,01,08,02,10.90
2020,10,01,08,03,10.90
2020,10,01,08,04,10.90
2020,10,01,08,05,10.90
2020,10,01,08,06,10.90
2020,10,01,08,07,10.90
2020,10,01,08,08,10.90
2020,10,01,08,09,10.90
2020,10,01,08,10,10.90
2020,10,01,08,11,10.90
2020,10,01,08,12,10.90
2020,10,01,08,13,10.90
2020,10,01,08,14,10.90
2020,10,01,08,15,10.90
2020,10,01,08,16,10.90
2020,10,01,08,17,10.90
2020,10,01,08,18,11.00
2020,10,01,08,19,11.00
2020,10,01,08,20,11.00
2020,10,01,08,21,11.00
2020,10,01,08,22,11.10
2020,10,01,08,23,11.10
2020,10,01,08,24,11.10
2020,10,01,08,25,11.10
2020,10,01,08,26,11.10
2020,10,01,08,27,11.10
2020,10,01,08,28,11.20
2020,10,01,08,29,11.20
2020,10,01,08,30,11.20
2020,10,01,08,31,11.20
2020,10,01,08,32,11.20
2020,10,01,08,33,11.30
2020,10,01,08,34,11.30
2020,10,01,08,35,11.30
2020,10,01,08,36,11.40
2020,10,01,08,37,11.40
2020,10,01,08,38,11.40
2020,10,01,08,39,11.50
2020,10,01,08,40,11.50
2020,10,01,08,41,11.60
2020,10,01,08,42,11.60
2020,10,01,08,43,11.70
2020,10,01,08,44,11.80
2020,10,01,08,45,11.80
2020,10,01,08,46,11.80
2020,10,01,08,47,11.80
2020,10,01,08,48,11.90
2020,10,01,08,49,11.90
2020,10,01,08,50,12.00
2020,10,01,08,51,12.00
2020,10,01,08,52,12.10
2020,10,01,08,53,12.10
2020,10,01,08,54,12.20
2020,10,01,08,55,12.30
2020,10,01,08,56,12.40
2020,10,01,08,57,12.40
2020,10,01,08,58,12.50
2020,10,01,08,59,12.60
2020,10,01,09,00,12.60
2020,10,01,09,01,12.60
2020,10,01,09,02,12.60
2020,10,01,09,03,12.70
2020,10,01,09,04,12.70
2020,10,01,09,05,12.70
2020,10,01,09,06,12.70
2020,10,01,09,07,12.70
2020,10,01,09,08,12.80
2020,10,01,09,09,12.80
2020,10,01,09,10,12.90
2020,10,01,09,11,12.90
2020,10,01,09,12,13.00
2020,10,01,09,13,13.00
2020,10,01,09,14,13.10
2020,10,01,09,15,13.20
2020,10,01,09,16,13.20
2020,10,01,09,17,13.30
2020,10,01,09,18,13.40
2020,10,01,09,19,13.50
2020,10,01,09,20,13.50
2020,10,01,09,21,13.60
2020,10,01,09,22,13.60
2020,10,01,09,23,13.70
2020,10,01,09,24,13.70
2020,10,01,09,25,13.80
2020,10,01,09,26,13.90
2020,10,01,09,27,13.90
2020,10,01,09,28,13.90
2020,10,01,09,29,14.00
2020,10,01,09,30,14.10
2020,10,01,09,31,14.10
2020,10,01,09,32,14.20
2020,10,01,09,33,14.30
2020,10,01,09,34,14.30
2020,10,01,09,35,14.40
2020,10,01,09,36,14.50
2020,10,01,09,37,14.60
2020,10,01,09,38,14.70
2020,10,01,09,39,14.80
2020,10,01,09,40,14.80
2020,10,01,09,41,14.90
2020,10,01,09,42,14.90
2020,10,01,09,43,15.00
2020,10,01,09,44,15.00
2020,10,01,09,45,15.10
2020,10,01,09,46,15.20
2020,10,01,09,47,15.20
2020,10,01,09,48,15.20
2020,10,01,09,49,15.30
2020,10,01,09,50,15.30
2020,10,01,09,51,15.30
2020,10,01,09,52,15.30
2020,10,01,09,53,15.30
2020,10,01,09,54,15.30
2020,10,01,09,55,15.40
2020,10,01,09,56,15.40
2020,10,01,09,57,15.40
2020,10,01,09,58,15.40
2020,10,01,09,59,15.50
2020,10,01,10,00,15.50
2020,10,01,10,01,15.50
2020,10,01,10,02,15.60
2020,10,01,10,03,15.60
2020,10,01,10,04,15.60
2020,10,01,10,05,15.70
2020,10,01,10,06,15.70
2020,10,01,10,07,15.70
2020,10,01,10,08,15.80
2020,10,01,10,09,15.80
2020,10,01,10,10,15.80
2020,10,01,10,11,15.90
2020,10,01,10,12,15.90
2020,10,01,10,13,16.00
2020,10,01,10,14,16.00
2020,10,01,10,15,16.10
2020,10,01,10,16,16.10
2020,10,01,10,17,16.10
2020,10,01,10,18,16.20
2020,10,01,10,19,16.30
2020,10,01,10,20,16.30
2020,10,01,10,21,16.30
2020,10,01,10,22,16.40
2020,10,01,10,23,16.40
2020,10,01,10,24,16.50
2020,10,01,10,25,16.50
2020,10,01,10,26,16.60
2020,10,01,10,27,16.60
2020,10,01,10,28,16.70
2020,10,01,10,29,16.80
2020,10,01,10,30,16.80
2020,10,01,10,31,16.80
2020,10,01,10,32,16.90
2020,10,01,10,33,16.90
2020,10,01,10,34,16.90
2020,10,01,10,35,16.90
2020,10,01,10,36,16.90
2020,10,01,10,37,17.00
2020,10,01,10,38,17.00
2020,10,01,10,39,17.00
2020,10,01,10,40,17.10
2020,10,01,10,41,17.10
2020,10,01,10,42,17.10
2020,10,01,10,43,17.20
2020,10,01,10,44,17.20
2020,10,01,10,45,17.20
2020,10,01,10,46,17.30
2020,10,01,10,47,17.30
2020,10,01,10,48,17.40
2020,10,01,10,49,17.40
2020,10,01,10,50,17.40
2020,10,01,10,51,17.40
2020,10,01,10,52,17.40
2020,10,01,10,53,17.50
2020,10,01,10,54,17.50
2020,10,01,10,55,17.60
2020,10,01,10,56,17.60
2020,10,01,10,57,17.70
2020,10,01,10,58,17.80
2020,10,01,10,59,18.00
2020,10,01,11,00,18.10
2020,10,01,11,01,18.10
2020,10,01,11,02,18.20
2020,10,01,11,03,18.30
2020,10,01,11,04,18.40
2020,10,01,11,05,18.40
2020,10,01,11,06,18.50
2020,10,01,11,07,18.50
2020,10,01,11,08,18.50
2020,10,01,11,09,18.60
2020,10,01,11,10,18.60
2020,10,01,11,11,18.70
2020,10,01,11,12,18.80
2020,10,01,11,13,18.80
2020,10,01,11,14,18.90
2020,10,01,11,15,19.00
2020,10,01,11,16,19.00
2020,10,01,11,17,19.10
2020,10,01,11,18,19.20
2020,10,01,11,19,19.20
2020,10,01,11,20,19.30
2020,10,01,11,21,19.30
2020,10,01,11,22,19.40
2020,10,01,11,23,19.40
2020,10,01,11,24,19.50
2020,10,01,11,25,19.50
2020,10,01,11,26,19.60
2020,10,01,11,27,19.60
2020,10,01,11,28,19.60
2020,10,01,11,29,19.60
2020,10,01,11,30,19.60
2020,10,01,11,31,19.60
2020,10,01,11,32,19.60
2020,10,01,11,33,19.60
2020,10,01,11,34,19.50
2020,10,01,11,35,19.50
2020,10,01,11,36,19.50
2020,10,01,11,37,19.60
2020,10,01,11,38,19.60
2020,10,01,11,39,19.60
2020,10,01,11,40,19.60
2020,10,01,11,41,19.60
2020,10,01,11,42,19.60
2020,10,01,11,43,19.70
2020,10,01,11,44,19.70
2020,10,01,11,45,19.70
2020,10,01,11,46,19.80
2020,10,01,11,47,19.80
2020,10,01,11,48,19.80
2020,10,01,11,49,19.90
2020,10,01,11,50,20.00
2020,10,01,11,51,20.10
2020,10,01,11,52,20.10
2020,10,01,11,53,20.20
2020,10,01,11,54,20.20
2020,10,01,11,55,20.30
2020,10,01,11,56,20.40
2020,10,01,11,57,20.50
2020,10,01,11,58,20.50
2020,10,01,11,59,20.60
2020,10,01,12,00,20.70
2020,10,01,12,01,20.70
2020,10,01,12,02,20.70
2020,10,01,12,03,20.70
2020,10,01,12,04,20.70
2020,10,01,12,05,20.80
2020,10,01,12,06,20.80
2020,10,01,12,07,20.80
2020,10,01,12,08,20.80
2020,10,01,12,09,20.80
2020,10,01,12,10,20.80
2020,10,01,12,11,20.90
2020,10,01,12,12,20.90
2020,10,01,12,13,20.90
2020,10,01,12,14,21.00
2020,10,01,12,15,21.10
2020,10,01,12,16,21.20
2020,10,01,12,17,21.20
2020,10,01,12,18,21.30
2020,10,01,12,19,21.30
2020,10,01,12,20,21.30
2020,10,01,12,21,21.40
2020,10,01,12,22,21.40
2020,10,01,12,23,21.50
2020,10,01,12,24,21.60
2020,10,01,12,25,21.60
2020,10,01,12,26,21.60
2020,10,01,12,27,21.60
2020,10,01,12,28,21.70
2020,10,01,12,29,21.60
2020,10,01,12,30,21.60
2020,10,01,12,31,21.60
2020,10,01,12,32,21.60
2020,10,01,12,33,21.60
2020,10,01,12,34,21.60
2020,10,01,12,35,21.60
2020,10,01,12,36,21.60
2020,10,01,12,37,21.60
2020,10,01,12,38,21.60
2020,10,01,12,39,21.60
2020,10,01,12,40,21.60
2020,10,01,12,41,21.60
2020,10,01,12,42,21.70
2020,10,01,12,43,21.70
2020,10,01,12,44,21.70
2020,10,01,12,45,21.60
2020,10,01,12,46,21.60
2020,10,01,12,47,21.70
2020,10,01,12,48,21.60
2020,10,01,12,49,21.60
2020,10,01,12,50,21.60
2020,10,01,12,51,21.50
2020,10,01,12,52,21.50
2020,10,01,12,53,21.40
2020,10,01,12,54,21.40
2020,10,01,12,55,21.40
2020,10,01,12,56,21.40
2020,10,01,12,57,21.40
2020,10,01,12,58,21.40
2020,10,01,12,59,21.40
2020,10,01,13,00,21.40
2020,10,01,13,01,21.50
2020,10,01,13,02,21.50
2020,10,01,13,03,21.60
2020,10,01,13,04,21.60
2020,10,01,13,05,21.60
2020,10,01,13,06,21.60
2020,10,01,13,07,21.60
2020,10,01,13,08,21.60
2020,10,01,13,09,21.70
2020,10,01,13,10,21.70
2020,10,01,13,11,21.70
2020,10,01,13,12,21.70
2020,10,01,13,13,21.70
2020,10,01,13,14,21.70
2020,10,01,13,15,21.70
2020,10,01,13,16,21.70
2020,10,01,13,17,21.80
2020,10,01,13,18,21.80
2020,10,01,13,19,21.80
2020,10,01,13,20,21.90
2020,10,01,13,21,22.00
2020,10,01,13,22,22.00
2020,10,01,13,23,22.10
2020,10,01,13,24,22.20
2020,10,01,13,25,22.20
2020,10,01,13,26,22.20
2020,10,01,13,27,22.20
2020,10,01,13,28,22.20
2020,10,01,13,29,22.20
2020,10,01,13,30,22.20
2020,10,01,13,31,22.20
2020,10,01,13,32,22.30
2020,10,01,13,33,22.30
2020,10,01,13,34,22.30
2020,10,01,13,35,22.30
2020,10,01,13,36,22.30
2020,10,01,13,37,22.30
2020,10,01,13,38,22.40
2020,10,01,13,39,22.40
2020,10,01,13,40,22.40
2020,10,01,13,41,22.40
2020,10,01,13,42,22.50
2020,10,01,13,43,22.50
2020,10,01,13,44,22.50
2020,10,01,13,45,22.60
2020,10,01,13,46,22.60
2020,10,01,13,47,22.60
2020,10,01,13,48,22.60
2020,10,01,13,49,22.70
2020,10,01,13,50,22.70
2020,10,01,13,51,22.70
2020,10,01,13,52,22.70
2020,10,01,13,53,22.70
2020,10,01,13,54,22.70
2020,10,01,13,55,22.60
2020,10,01,13,56,22.60
2020,10,01,13,57,22.50
2020,10,01,13,58,22.50
2020,10,01,13,59,22.50
2020,10,01,14,00,22.50
2020,10,01,14,01,22.50
2020,10,01,14,02,22.60
2020,10,01,14,03,22.60
2020,10,01,14,04,22.70
2020,10,01,14,05,22.70
2020,10,01,14,06,22.70
2020,10,01,14,07,22.70
2020,10,01,14,08,22.70
2020,10,01,14,09,22.60
2020,10,01,14,10,22.60
2020,10,01,14,11,22.60
2020,10,01,14,12,22.60
2020,10,01,14,13,22.60
2020,10,01,14,14,22.60
2020,10,01,14,15,22.60
2020,10,01,14,16,22.60
2020,10,01,14,17,22.60
2020,10,01,14,18,22.60
2020,10,01,14,19,22.60
2020,10,01,14,20,22.50
2020,10,01,14,21,22.50
2020,10,01,14,22,22.40
2020,10,01,14,23,22.40
2020,10,01,14,24,22.30
2020,10,01,14,25,22.20
2020,10,01,14,26,22.20
2020,10,01,14,27,22.20
2020,10,01,14,28,22.10
2020,10,01,14,29,22.10
2020,10,01,14,30,22.10
2020,10,01,14,31,22.10
2020,10,01,14,32,22.10
2020,10,01,14,33,22.10
2020,10,01,14,34,22.10
2020,10,01,14,35,22.20
2020,10,01,14,36,22.20
2020,10,01,14,37,22.20
2020,10,01,14,38,22.20
2020,10,01,14,39,22.20
2020,10,01,14,40,22.20
2020,10,01,14,41,22.20
2020,10,01,14,42,22.20
2020,10,01,14,43,22.30
2020,10,01,14,44,22.30
2020,10,01,14,45,22.40
2020,10,01,14,46,22.40
2020,10,01,14,47,22.40
2020,10,01,14,48,22.40
2020,10,01,14,49,22.40
2020,10,01,14,50,22.40
2020,10,01,14,51,22.40
2020,10,01,14,52,22.40
2020,10,01,14,53,22.40
2020,10,01,14,54,22.40
2020,10,01,14,55,22.40
2020,10,01,14,56,22.30
2020,10,01,14,57,22.30
2020,10,01,14,58,22.30
2020,10,01,14,59,22.30
2020,10,01,15,00,22.30
2020,10,01,15,01,22.30
2020,10,01,15,02,22.30
2020,10,01,15,03,22.30
2020,10,01,15,04,22.30
2020,10,01,15,05,22.30
2020,10,01,15,06,22.30
2020,10,01,15,07,22.30
2020,10,01,15,08,22.40
2020,10,01,15,09,22.40
2020,10,01,15,10,22.40
2020,10,01,15,11,22.40
2020,10,01,15,12,22.40
2020,10,01,15,13,22.40
2020,10,01,15,14,22.40
2020,10,01,15,15,22.40
2020,10,01,15,16,22.50
2020,10,01,15,17,22.50
2020,10,01,15,18,22.60
2020,10,01,15,19,22.70
2020,10,01,15,20,22.70
2020,10,01,15,21,22.80
2020,10,01,15,22,22.90
2020,10,01,15,23,22.90
2020,10,01,15,24,23.00
2020,10,01,15,25,23.10
2020,10,01,15,26,23.20
2020,10,01,15,27,23.20
2020,10,01,15,28,23.30
2020,10,01,15,29,23.40
2020,10,01,15,30,23.50
2020,10,01,15,31,23.50
2020,10,01,15,32,23.60
2020,10,01,15,33,23.60
2020,10,01,15,34,23.70
2020,10,01,15,35,23.70
2020,10,01,15,36,23.70
2020,10,01,15,37,23.70
2020,10,01,15,38,23.70
2020,10,01,15,39,23.70
2020,10,01,15,40,23.70
2020,10,01,15,41,23.70
2020,10,01,15,42,23.60
2020,10,01,15,43,23.60
2020,10,01,15,44,23.50
2020,10,01,15,45,23.50
2020,10,01,15,46,23.40
2020,10,01,15,47,23.40
2020,10,01,15,48,23.30
2020,10,01,15,49,23.30
2020,10,01,15,50,23.30
2020,10,01,15,51,23.20
2020,10,01,15,52,23.20
2020,10,01,15,53,23.10
2020,10,01,15,54,23.00
2020,10,01,15,55,22.90
2020,10,01,15,56,22.80
2020,10,01,15,57,22.80
2020,10,01,15,58,22.70
2020,10,01,15,59,22.60
2020,10,01,16,00,22.50
2020,10,01,16,01,22.50
2020,10,01,16,02,22.40
2020,10,01,16,03,22.30
2020,10,01,16,04,22.30
2020,10,01,16,05,22.20
2020,10,01,16,06,22.20
2020,10,01,16,07,22.10
2020,10,01,16,08,22.10
2020,10,01,16,09,22.10
2020,10,01,16,10,22.10
2020,10,01,16,11,22.00
2020,10,01,16,12,22.00
2020,10,01,16,13,21.90
2020,10,01,16,14,21.90
2020,10,01,16,15,21.80
2020,10,01,16,16,21.80
2020,10,01,16,17,21.80
2020,10,01,16,18,21.80
2020,10,01,16,19,21.80
2020,10,01,16,20,21.70
2020,10,01,16,21,21.70
2020,10,01,16,22,21.80
2020,10,01,16,23,21.80
2020,10,01,16,24,21.80
2020,10,01,16,25,21.70
2020,10,01,16,26,21.70
2020,10,01,16,27,21.70
2020,10,01,16,28,21.70
2020,10,01,16,29,21.70
2020,10,01,16,30,21.70
2020,10,01,16,31,21.70
2020,10,01,16,32,21.70
2020,10,01,16,33,21.60
2020,10,01,16,34,21.60
2020,10,01,16,35,21.60
2020,10,01,16,36,21.50
2020,10,01,16,37,21.50
2020,10,01,16,38,21.50
2020,10,01,16,39,21.40
2020,10,01,16,40,21.40
2020,10,01,16,41,21.40
2020,10,01,16,42,21.30
2020,10,01,16,43,21.30
2020,10,01,16,44,21.30
2020,10,01,16,45,21.30
2020,10,01,16,46,21.20
2020,10,01,16,47,21.20
2020,10,01,16,48,21.20
2020,10,01,16,49,21.20
2020,10,01,16,50,21.20
2020,10,01,16,51,21.20
2020,10,01,16,52,21.20
2020,10,01,16,53,21.20
2020,10,01,16,54,21.20
2020,10,01,16,55,21.20
2020,10,01,16,56,21.10
2020,10,01,16,57,21.10
2020,10,01,16,58,21.10
2020,10,01,16,59,21.10
2020,10,01,17,00,21.10
2020,10,01,17,01,21.10
2020,10,01,17,02,21.10
2020,10,01,17,03,21.10
2020,10,01,17,04,21.10
2020,10,01,17,05,21.10
2020,10,01,17,06,21.10
2020,10,01,17,07,21.10
2020,10,01,17,08,21.10
2020,10,01,17,09,21.10
2020,10,01,17,10,21.10
2020,10,01,17,11,21.10
2020,10,01,17,12,21.10
2020,10,01,17,13,21.10
2020,10,01,17,14,21.10
2020,10,01,17,15,21.10
2020,10,01,17,16,21.10
2020,10,01,17,17,21.10
2020,10,01,17,18,21.10
2020,10,01,17,19,21.10